Regional Weather Roundup
Issued by NWS

Home | Current Version | Previous Version | Text Only | Print | Product List | Glossary Off
Versions: 1 2 3 4 5 6 7 8 9 10 11 12 13 14 15 16 17 18 19 20 21 22 23 24 25 26 27

000
ASUS45 KTFX 220710
RWRMT
MONTANA REGIONAL WEATHER ROUNDUP
NATIONAL WEATHER SERVICE GREAT FALLS MT
100 AM MDT MON MAY 22 2017

NOTE: "FAIR" INDICATES FEW OR NO CLOUDS BELOW 12000 FEET WITH NO
SIGNIFICANT WEATHER AND/OR OBSTRUCTIONS TO VISIBILITY.

MTZ001>007-043-220800-
WEST OF THE DIVIDE

CITY           SKY/WX    TMP DP  RH WIND       PRES   REMARKS
KALISPELL      PTCLDY    46  44  93 CALM      30.17R
MISSOULA       CLEAR     48  41  76 SE3       30.23R
BUTTE          CLOUDY    40  33  76 SE6       30.29S
MULLAN PASS    PTCLDY    49  33  54 NW6       30.31S
ANACONDA         N/A     46  32  57 SW6       30.26F
DEER LODGE       N/A     46  34  61 W5        30.28S
EUREKA           N/A     52  41  66 CALM      30.16R
HAMILTON         N/A     50  37  62 CALM      30.24R
LIBBY            N/A     50  43  76 CALM      30.17R
RONAN            N/A     50  41  71 CALM      30.21S
$$

MTZ008-052>055-220800-
SOUTHWEST MONTANA

CITY           SKY/WX    TMP DP  RH WIND       PRES   REMARKS
BOZEMAN        PTCLDY    46  37  71 S7        30.23S
DILLON         CLEAR     47  34  60 S7        30.26S
W YELLOWSTONE  CLOUDY    28  27  93 CALM      30.33R
ENNIS          CLEAR     39  36  87 E5        30.32R
THREE FORKS      N/A     43  39  85 CALM      30.19S
TWIN BRIDGES     N/A     47  32  56 NE3       30.22
$$

MTZ009-010-012-014-046-048-049-054-220800-
EAST SLOPES AND CENTRAL MONTANA

CITY           SKY/WX    TMP DP  RH WIND       PRES   REMARKS
CUT BANK       PTCLDY    46  36  68 W3        30.17S
GREAT FALLS    CLOUDY    50  41  71 SW8       30.16F
HELENA         CLEAR     55  37  50 CALM      30.19S
AUGUSTA        MOCLDY    53  37  54 W16       30.18F
BOWMANS CRNR     N/A     48  35  60 W10       30.17F
CHOTEAU          N/A     52  39  62 SW6       30.19S
FAIRFIELD      MOCLDY    51  40  66 N6        30.16F
POWER            N/A     48  38  67 NW6       30.16S
RAYNESFORD     MOCLDY    50  40  68 NE5       30.17S
ULM            MOCLDY    50  45  84 SE3       30.17S
$$

MTZ011-013-016-021-045-047-050-051-220800-
NORTH CENTRAL MONTANA

CITY           SKY/WX    TMP DP  RH WIND       PRES   REMARKS
HAVRE          CLOUDY    49  41  74 S3        30.10R
LEWISTOWN      CLOUDY    47  40  76 SW7       30.14R
N BAR RANCH    CLOUDY    46  37  71 W7        30.17S
CHINOOK          N/A     46  43  87 W3        30.09S
DENTON         MOCLDY    53  41  64 MISG      30.10S
FORT BENTON      N/A     54  37  54 MISG      30.14R
GEYSER         MOCLDY    51  40  68 SW7       30.16R
JUDITH GAP       N/A     51  33  50 NW17      30.15S
STANFORD       MOCLDY    52  36  54 NW13      30.16R
WINIFRED       MOCLDY    52  38  59 SW5       30.11F
$$

MTZ017>020-022>027-061-062-220800-
NORTHEAST MONTANA

CITY           SKY/WX    TMP DP  RH WIND       PRES   REMARKS
GLASGOW        CLOUDY    47  45  93 W6        30.05S
JORDAN           N/A     48  45  89 S5        30.07F
SIDNEY         CLOUDY    51  42  71 NW12      29.99S
WOLF POINT     PTCLDY    48  45  89 W7        30.02F
MALTA          MOCLDY    48  45  87 CALM      30.07S
PLENTYWOOD       N/A     48  43  81 W12       29.98R
POPLAR           N/A     46  43  87 W5        30.03S
$$

MTZ028>42-056>058-220800-
SOUTHCENTRAL AND SOUTHEAST MONTANA

CITY           SKY/WX    TMP DP  RH WIND       PRES   REMARKS
BAKER          LGT RAIN  48  43  82 NW18G29   30.07R
BILLINGS       MOCLDY    56  39  53 W10       30.12F
LIVINGSTON     CLOUDY    47  36  65 NW9       30.22S
MILES CITY     CLOUDY    50  46  86 NE7       30.09F
BIG TIMBER     CLOUDY    54  36  50 SW16      30.21S
EKALAKA          N/A     48  41  77 NW9       30.07R
FORSYTH          N/A     52  46  82 CALM      30.09F
LAUREL           N/A     52  37  56 CALM      30.11F
ROUNDUP          N/A     53  37  54 N3        30.03F
$$

REGIONAL REPORTS...DAKOTAS

CITY           SKY/WX    TMP DP  RH WIND       PRES   REMARKS
WILLISTON      CLOUDY    54  41  61 NW16      29.97S
MINOT          CLOUDY    50  37  61 E6        29.92F
DICKINSON      CLOUDY    50  38  63 W10       29.95S
BEACH          CLOUDY    50  41  71 NW15      30.04F
TIOGA            N/A     52  41  66 NW13G20   29.95S
WATFORD CITY   CLOUDY    54  41  62 NW15G23   29.95S
BISMARCK       CLEAR     47  36  65 N3        29.92F
GRAND FORKS    LGT RAIN  47  44  90 W10       29.86S
FARGO          CLOUDY    44  42  93 W8        29.88F
BUFFALO SD       N/A     48  43  82 NW15      29.96F
RAPID CITY     CLEAR     43  37  79 W7        30.06F
$$

REGIONAL REPORTS...WYOMING/IDAHO/WASHINGTON

CITY           SKY/WX    TMP DP  RH WIND       PRES   REMARKS
GILLETTE       CLEAR     45  38  76 SW13      30.13F
SHERIDAN       MOCLDY    53  37  54 W10       30.13F
BUFFALO WY     MOCLDY    49  33  54 W8        30.17F
CODY           PTCLDY    49  36  61 SW7       30.23F
YELLOWSTONE LA   N/A     28  25  88 CALM      30.35F
IDAHO FALLS    CLEAR     47  35  63 CALM      30.26R
SALMON         CLEAR     46  39  76 CALM      30.24R
BOISE          CLEAR     60  47  61 SE3       30.19S
SPOKANE        MOCLDY    60  47  61 SW7       30.18S
$$

REGIONAL REPORTS...ALBERTA

CITY           SKY/WX    TMP DP  RH WIND       PRES   REMARKS
EDMONTON       CLEAR     55  37  50 E2        30.10S
CALGARY        MOCLDY    61  32  33 SW5       30.17S
LETHBRIDGE     CLOUDY    52  41  66 SW9       30.15S
MEDICINE HAT   MOCLDY    52  41  66 W5        30.09S
WATERTON GATE    N/A     45  34  65 SW7         N/A
CARDSTON         N/A     45  37  76 SE2         N/A
MILK RIVER       N/A     52  43  71 N6          N/A
$$

REGIONAL REPORTS...SASKATCHEWAN

CITY           SKY/WX    TMP DP  RH WIND       PRES   REMARKS
SWIFT CURRENT  MOCLDY    46  39  76 S6        30.05S
REGINA         CLOUDY    48  41  76 N8        30.00S
SASKATOON      PTCLDY    41  37  87 N8        30.09R
CYPRESS HILLS    N/A     46  32  57 N2          N/A
VAL MARIE        N/A     39  36  87 NE1         N/A
ROCKGLEN         N/A     48  41  76 NW9         N/A
ASSINIBOIA       N/A     54  39  58 E6          N/A
$$




USA.gov is the U.S. government's official web portal to all federal, state and local government web resources and services.